This is the latest recevied weather packets stored in our database for station/object DG3RAP-11. If no packets are shown the sender has not sent any weather packets the latest 10 day(s).
| Time | Temp. | Humidity | Pressure | Rain* | Wind** | Luminosity | Snow |
|---|---|---|---|---|---|---|---|
| 1777920843 | 20° C | 44% | 1010.6 hPa | 0 mm | - | - | - |
| 1777920303 | 20° C | 44% | 1010.4 hPa | 0 mm | - | - | - |
| 1777919763 | 20.56° C | 41% | 1010.5 hPa | 0 mm | - | - | - |
| 1777919223 | 20.56° C | 41% | 1010.6 hPa | 0 mm | - | - | - |
| 1777918683 | 21.11° C | 41% | 1010.5 hPa | 0 mm | - | - | - |
| 1777918143 | 21.11° C | 40% | 1010.5 hPa | 0 mm | - | - | - |
| 1777917603 | 21.67° C | 40% | 1010.5 hPa | 0 mm | - | - | - |
| 1777917243 | 21.67° C | 39% | 1010.5 hPa | 0 mm | - | - | - |
| 1777916703 | 21.67° C | 39% | 1010.5 hPa | 0 mm | - | - | - |
| 1777916163 | 21.67° C | 39% | 1010.5 hPa | 0 mm | - | - | - |
| 1777915623 | 22.22° C | 39% | 1010.7 hPa | 0 mm | - | - | - |
| 1777915083 | 22.22° C | 39% | 1010.7 hPa | 0 mm | - | - | - |
| 1777914543 | 22.22° C | 38% | 1011 hPa | 0 mm | - | - | - |
| 1777914003 | 22.22° C | 38% | 1010.7 hPa | 0 mm | - | - | - |
| 1777913643 | 22.78° C | 39% | 1010.6 hPa | 0 mm | - | - | - |
| 1777913103 | 22.78° C | 38% | 1010.6 hPa | 0 mm | - | - | - |
| 1777912563 | 23.33° C | 36% | 1010.9 hPa | 0 mm | - | - | - |
| 1777912023 | 23.33° C | 36% | 1011 hPa | 0 mm | - | - | - |
| 1777911483 | 23.33° C | 37% | 1010.8 hPa | 0 mm | - | - | - |
| 1777910944 | 23.33° C | 36% | 1011 hPa | 0 mm | - | - | - |
| 1777910403 | 23.89° C | 34% | 1011 hPa | 0 mm | - | - | - |
| 1777910043 | 24.44° C | 36% | 1010.8 hPa | 0 mm | - | - | - |
| 1777909503 | 23.89° C | 35% | 1011.1 hPa | 0 mm | - | - | - |
| 1777908964 | 24.44° C | 33% | 1010.9 hPa | 0 mm | - | - | - |
| 1777908423 | 24.44° C | 34% | 1011 hPa | 0 mm | - | - | - |
* Rain latest hour (hover to see other rain measurements)
** Current wind speed in m/s (hover to see current wind gust speed)